Hourly Weather Roundup
Issued by NWS Central Illinois

Home | Current Version | Previous Version | Text Only | Print | Product List | Glossary On
Versions: 1 2 3 4 5 6 7 8 9 10 11 12 13 14 15 16 17 18 19 20 21 22 23 24 25 26 27 28 29 30 31 32 33 34 35 36 37 38 39 40 41 42 43 44 45 46 47 48 49 50
000
NZUS43 KILX 200610
HWRILX

AREA WEATHER ROUNDUP
NATIONAL WEATHER SERVICE, LINCOLN IL
1200 AM CST MON FEB 20 2017


CITY           SKY/WX    TMP DP  RH WIND       PRES   REMARKS
BLOOMINGTON    PTCLDY    48  46  93 S8        30.10R FOG
6HR MIN TEMP:  48; 6HR MAX TEMP:  59;

CHAMPAIGN      FOG       47  46  97 SE10      30.12R VSB 1/4
6HR MIN TEMP:  43; 6HR MAX TEMP:  55;

DECATUR        FOG       48  47  96 SE8       30.10R VSB 1/4
6HR MIN TEMP:  45; 6HR MAX TEMP:  60;

EFFINGHAM      FOG       50  50 100 SE3       30.14R VSB 1/2
6HR MIN TEMP:  50; 6HR MAX TEMP:  54;

FLORA          FOG       49  49  97 SE3       30.12S VSB 1/4
6HR MIN TEMP:  49; 6HR MAX TEMP:  55;

GALESBURG      PTCLDY    54  49  84 SE6       30.03S
6HR MIN TEMP:  54; 6HR MAX TEMP:  62;

JACKSONVILLE   CLOUDY    55  51  86 SE12      30.05R
6HR MIN TEMP:  55; 6HR MAX TEMP:  62;

LACON          CLOUDY    50  47  88 CALM      30.07R
6HR MIN TEMP:  50; 6HR MAX TEMP:  61;

LAWRENCEVILLE  FOG       40  39  97 E6        30.14F VSB<1/4
6HR MIN TEMP:  39; 6HR MAX TEMP:  49;

LITCHFIELD     PTCLDY    49  49  99 SE12      30.08S FOG
6HR MIN TEMP:  49; 6HR MAX TEMP:  57;

$$


CITY           SKY/WX    TMP DP  RH WIND       PRES   REMARKS
LINCOLN        PTCLDY    48  48  99 SE5       30.08F FOG
6HR MIN TEMP:  48; 6HR MAX TEMP:  60;

MACOMB         PTCLDY    52  48  88 SE10      30.04S
6HR MIN TEMP:  52; 6HR MAX TEMP:  63;

MATTOON        FOG       49  49 100 S12       30.11S VSB 1/4
6HR MIN TEMP:  48; 6HR MAX TEMP:  52;

MT CARMEL AP   FOG       43  42  97 E5        30.13F VSB<1/4
6HR MIN TEMP:  38; 6HR MAX TEMP:  51;

OLNEY-NOBLE AP FOG       45  45 100 E3        30.12F VSB 1/4
PARIS            N/A     46  46 100 SE6       30.14F FOG
6HR MIN TEMP:  44; 6HR MAX TEMP:  53;

PEORIA         PTCLDY    53  49  86 SE7       30.07S
6HR MIN TEMP:  53; 6HR MAX TEMP:  63;

PONTIAC        CLOUDY    45  44  98 SE8       30.11R FOG
6HR MIN TEMP:  45; 6HR MAX TEMP:  54;

RANTOUL        MOCLDY    47  47  99 SE5       30.12R FOG
6HR MIN TEMP:  46; 6HR MAX TEMP:  61;

SPRINGFIELD    CLOUDY    52  49  89 SE13      30.07S FOG
6HR MIN TEMP:  52; 6HR MAX TEMP:  63;

TAYLORVILLE    FOG       49  49  99 SE13      30.09S VSB 1/2
6HR MIN TEMP:  49; 6HR MAX TEMP:  59;

$$

...REGIONAL REPORTS...


CITY           SKY/WX    TMP DP  RH WIND       PRES   REMARKS
CHICAGO O`HARE CLOUDY    45  31  58 E3        30.11S
KANKAKEE       CLOUDY    42  38  87 CALM      30.13R
MOLINE         CLOUDY    55  46  71 SE6       30.01R
MOUNT STERLING CLOUDY    54  50  87 SE8       30.02R
MOUNT VERNON   CLOUDY    49  48  97 E3        30.11S FOG
PITTSFIELD     PTCLDY    54  51  88 SE8       30.04S
QUINCY         MOCLDY    54  50  86 SE8       30.00S
ROCKFORD       MOCLDY    48  40  73 SE7       30.09S
$$


CITY           SKY/WX    TMP DP  RH WIND       PRES   REMARKS
BURLINGTON     PTCLDY    58  51  78 S12       29.99S
CEDAR RAPIDS   CLOUDY    56  48  74 S12       29.96R
DES MOINES     CLOUDY    58  46  64 SE9       29.90R
KIRKSVILLE     PTCLDY    55  49  80 S9        29.96S
OTTUMWA        CLOUDY    60  49  66 S15       29.93S
ST LOUIS       CLOUDY    59  53  80 SE9       30.05F
$$


CITY           SKY/WX    TMP DP  RH WIND       PRES   REMARKS
TERRE HAUTE    FOG       40  38  93 SE3       30.15F VSB 1/4
EVANSVILLE     FOG       44  42  93 NE3       30.14F VSB 1/4
INDIANAPOLIS   CLEAR     46  43  89 CALM      30.16S FOG
LAFAYETTE      CLEAR     43  41  93 CALM      30.14S
MADISON        PTCLDY    45  34  65 MISG      30.07R
MILWAUKEE      CLOUDY    38  32  79 NW3       30.13S
$$






USA.gov is the U.S. government's official web portal to all federal, state and local government web resources and services.